Hourly Data Report for January 16, 2012

HALIFAX STANFIELD INT'L A
NOVA SCOTIA

44°52'48.060" N
63°30'00.050" W
145.40 m
8202250
71395
YHZ

Download Data

Hourly Data (January 2012)
Hourly Data Report for January 16, 2012
TIME
LST
Temp Definition
°C
Dew Point Definition
°C
Rel Hum Definition
%
Precip. Amount Definition
mm

Wind Dir Definition
10's deg

Wind Spd Definition
km/h
Visibility Definition
km
Stn Press Definition
kPa
Hmdx Definition


Wind Chill Definition


Weather Definition


00:00 -14.9 -17.6 80   33 19 24.1 100.24   -24 Clear
01:00 -15.6 -18.1 81   34 22 24.1 100.30   -25 Clear
02:00 -16.1 -19.0 78   33 19 24.1 100.34   -25 Clear
03:00 -16.3 -19.2 78   33 17 24.1 100.41   -25 Clear
04:00 -16.5 -19.1 80   33 19 24.1 100.46   -26 Mainly Clear
05:00 -16.5 -19.0 81   34 15 24.1 100.52   -25 Mainly Clear
06:00 -16.4 -20.0 74   32 17 24.1 100.60   -25 Mainly Clear
07:00 -16.4 -19.9 74   33 15 24.1 100.68   -25 Mainly Clear
08:00 -15.9 -20.8 66   34 15 24.1 100.73   -24 Mainly Clear
09:00 -14.6 -19.5 66   33 15 24.1 100.81   -22 Mainly Clear
10:00 -12.4 -17.5 66   33 30 24.1 100.85   -23 Mainly Clear
11:00 -10.9 -16.6 63   32 24 24.1 100.88   -20 Clear
12:00 -8.4 -15.7 56   29 17 24.1 100.83   -15 Clear
13:00 -7.2 -14.2 57   32 20 24.1 100.80   -14 Mainly Clear
14:00 -6.1 -13.5 56   30 17 24.1 100.75   -12 Clear
15:00 -5.8 -13.2 56   29 13 24.1 100.82   -11 Clear
16:00 -6.0 -12.1 62   27 15 24.1 100.84   -12 Clear
17:00 -7.1 -12.7 64   29 11 24.1 100.87   -12 Mainly Clear
18:00 -9.0 -12.4 76     0 24.1 100.87     Mainly Clear
19:00 -9.3 -12.9 75   18 7 24.1 100.86   -13 Clear
20:00 -9.6 -12.9 77   23 9 24.1 100.90   -14 Clear
21:00 -11.2 -13.2 85   21 13 24.1 100.76   -18 Clear
22:00 -9.3 -12.6 77   20 13 24.1 100.70   -15 Clear
23:00 -8.6 -11.9 77   23 20 24.1 100.63   -16 Mostly Cloudy

Notes on Data Quality.

Legend

  • E = Estimated
  • M = Missing
  • NA = Not Available*
  • [empty] = Indicates an unobserved value
Date modified: